Location: Anstaing
(50.6047°N, 3.1908°E)
Time: 03:09:19
(UTC+00:00)

Daily predictions for brighter satellites

Satellite Brightness Start Highest point End
(mag) Time Altitude Azimuth Time Altitude Azimuth Time Altitude Azimuth
NOSS 2-2 (D) 4.1 00:00:24 10° NW 00:05:13 88° NE 00:11:38 12° SE
Cosmos 1461 3.1 00:01:33 10° NW 00:05:35 51° SW 00:06:31 42° SSW
Gblst 52 Del rocket 4.2 00:00:18 10° WSW 00:06:33 83° SSE 00:12:10 10° ENE
Cosmos 1553 Rocket 3.9 00:03:21 30° S 00:06:35 88° E 00:12:50 10° N
Cosmos 1867 3.6 00:05:01 32° SSW 00:07:28 64° SE 00:12:54 10° NE
Cosmos 2221 Rocket 3.5 00:06:47 39° S 00:08:24 89° WNW 00:12:50 10° N
Cosmos 1674 Rocket 3.6 00:06:55 38° SSE 00:08:26 65° E 00:12:44 10° NNE
USA 306 4.1 00:11:52 25° SE 00:11:52 25° SE 00:15:05 10° E
Cosmos 1674 2.6 00:10:51 47° SSW 00:11:50 76° W 00:15:37 10° N
Cosmos 1238 Rocket 2.0 00:08:59 10° NNW 00:11:55 67° W 00:12:06 65° SW
ATLAS CENTAUR R/B 2.9 00:09:28 10° WNW 00:13:25 25° WSW 00:13:59 25° SW
USA 307 4.2 00:15:20 23° SE 00:15:20 23° SE 00:18:29 10° E
SL-19 R/B 4.3 00:17:33 40° WSW 00:17:35 40° WSW 00:20:24 10° NNW
SL-16 R/B 4.3 00:16:24 10° SE 00:19:19 14° E 00:22:15 10° ENE
ERBS 4.4 00:22:52 14° ESE 00:22:52 14° ESE 00:23:45 10° E
Cosmos 468 4.5 00:16:47 10° NNW 00:21:59 69° WSW 00:24:28 31° S
ATLAS 5 CENTAUR R/B 3.3 00:07:52 10° NW 00:22:04 64° SW 00:24:39 27° SSE
Cosmos 2322 Rocket 4.0 00:17:30 10° W 00:22:11 26° NW 00:26:54 10° NNE
CZ-4C R/B 3.1 00:15:21 10° NW 00:22:22 56° SW 00:27:52 22° SSE
Cosmos 1455 Rocket 4.5 00:18:52 10° N 00:22:58 34° ENE 00:26:09 15° SE
Cosmos 1980 4.3 00:20:38 27° SSE 00:23:12 44° ESE 00:28:31 10° NE
Cosmos 2333 Rocket 2.8 00:19:42 18° SW 00:23:46 52° NW 00:29:21 10° NNE
Cosmos 1378 Rocket 3.5 00:22:19 37° S 00:24:01 87° ESE 00:28:29 10° N
Cosmos 2322 3.9 00:20:47 23° SW 00:24:24 67° WNW 00:30:08 10° NNE
USA 215 3.5 00:20:13 10° ENE 00:26:45 74° NNW 00:33:17 10° WSW
NOSS 0 Rocket 4.1 00:29:23 28° S 00:32:41 64° ESE 00:38:52 10° NE
PSLV R/B 4.0 00:28:42 10° N 00:32:59 56° WNW 00:35:01 29° SW
Meteor 2-10 Rocket 3.9 00:31:43 10° N 00:37:26 67° ENE 00:41:17 20° SSE
USA 32 4.2 00:35:15 27° SSE 00:38:06 65° E 00:43:20 10° NNE
Cosmos 2151 Rocket 4.4 00:35:23 10° NNW 00:39:25 36° W 00:40:53 28° SW
Cosmos 1745 Rocket 4.1 00:34:57 10° NNW 00:41:07 64° W 00:44:35 27° SSW
Cosmos 1975 Rocket 4.2 00:39:39 21° SE 00:42:00 37° E 00:46:07 10° NNE
Cosmos 839 Rocket 4.2 00:36:31 10° NW 00:42:48 69° SW 00:49:12 14° SSE
Okean 2 Rocket 4.3 00:39:42 10° NNW 00:43:40 30° W 00:45:14 24° SW
Okean 2 4.5 00:42:13 24° WSW 00:43:54 34° WNW 00:47:41 10° N
ADEOS Rocket 4.1 00:42:18 20° SW 00:44:47 27° W 00:49:45 10° NW
USA 308 3.5 00:44:46 33° SSE 00:45:32 36° SE 00:49:23 10° ENE
Cosmos 2219 Rocket 3.0 00:42:56 17° WSW 00:47:04 46° NW 00:52:29 10° NNE
Meteor 2-12 Rocket 4.4 00:42:41 10° NNW 00:48:47 75° W 00:52:26 25° S
Cosmos 1455 4.3 00:46:06 10° NNE 00:49:02 22° ENE 00:51:57 10° ESE
Cosmos 1025 Rocket 4.2 00:47:03 19° SE 00:49:28 35° E 00:53:23 10° NNE
GP-B 3.1 00:51:22 10° N 00:55:51 82° E 00:58:07 29° S
CZ-2D R/B 3.1 00:53:47 10° NNE 00:58:49 39° E 01:02:28 17° SSE
Meteor 2-5 Rocket 4.4 00:55:38 19° SSE 00:59:34 48° E 01:04:59 10° NNE
Cosmos 1300 2.7 00:56:20 10° NNW 01:00:06 63° W 01:01:27 36° SSW
Lacrosse 5 3.2 00:58:31 20° SSE 01:00:20 25° SE 01:04:27 10° ENE
SL-14 R/B 3.5 01:02:27 32° SW 01:03:58 57° WNW 01:07:48 10° N
USA 267 4.1 01:02:14 24° SSW 01:04:14 27° SW 01:09:41 10° WNW
Cosmos 371 Rocket 3.4 01:06:03 26° SW 01:08:44 71° WNW 01:13:36 10° NNE
USA 305 2.9 01:07:08 31° SSW 01:08:53 57° SSE 01:12:59 10° ENE
Cosmos 2150 Rocket 4.1 01:06:08 25° SW 01:09:09 69° WNW 01:14:20 10° NNE
Cosmos 1544 Rocket 4.3 01:05:06 10° N 01:09:25 50° ENE 01:13:10 13° SSE
USA 229 DEB 4.3 01:02:43 10° NW 01:09:36 44° WSW 01:15:06 18° S
USA 229 4.3 01:02:49 10° NW 01:09:43 45° WSW 01:15:15 18° S
Cosmos 2237 Rocket 2.2 01:11:28 24° SSW 01:15:01 88° NW 01:20:46 10° NNE
COSMOS 2428 3.7 01:12:17 14° WSW 01:16:49 41° NW 01:22:12 10° NNE
Cosmos 1437 Rocket 4.2 01:15:27 10° NW 01:18:24 22° W 01:19:16 20° WSW
Cosmos 405 Rocket 4.2 01:18:03 19° WSW 01:19:45 26° WNW 01:22:59 10° N
Cosmos 304 Rocket 3.7 01:17:17 26° SSW 01:20:01 85° WNW 01:24:54 10° NNE
SL-16 R/B 2.7 01:15:00 10° SSE 01:21:11 77° ENE 01:27:27 10° NNW
Helios 1A 4.5 01:18:24 10° SE 01:22:15 35° ENE 01:26:07 10° N
Okean 1 Rocket 4.3 01:18:39 10° NNW 01:22:21 27° W 01:24:05 21° SW
Lacrosse 5 rocket 3.0 01:21:54 16° SSE 01:23:11 19° SE 01:26:01 10° E
Cosmos 1125 Rocket 4.0 01:20:01 21° SW 01:23:21 53° WNW 01:28:29 10° NNE
Cosmos 1953 3.8 01:22:00 10° NW 01:25:10 22° W 01:26:26 19° WSW
SME Rocket 3.4 01:24:35 25° S 01:26:48 56° WSW 01:31:59 10° NNW
Cosmos 2074 Rocket 4.2 01:21:19 10° N 01:27:39 75° E 01:33:56 10° SSE
Resurs 1-4 Rocket 2.3 01:22:52 10° NNE 01:28:09 68° ESE 01:31:56 19° S
Cosmos 2297 3.8 01:26:30 10° NNW 01:32:18 80° ENE 01:38:02 10° SSE
Cosmos 1943 Rocket 2.2 01:26:37 10° NNW 01:32:20 84° WSW 01:38:00 10° SSE
MOZ.5/SAFIR/RUBIN 5/SL-8 4.4 01:33:59 23° SSW 01:36:26 39° W 01:40:54 10° NNW
Cosmos 2315 Rocket 4.4 01:35:34 20° SSW 01:40:00 55° WNW 01:46:18 10° N
Cosmos 2184 Rocket 4.0 01:36:14 10° N 01:42:33 89° E 01:48:45 10° S
Cosmos 2278 Rocket 3.4 01:38:38 10° NW 01:43:02 23° WSW 01:45:23 18° SW
ADEOS II 2.7 01:38:54 10° NNE 01:44:03 51° E 01:48:40 13° S
IDEFIX/ARIANE 42P 3.5 01:39:51 10° NNE 01:44:54 44° E 01:49:52 10° S
USA 306 2.8 01:47:34 16° WSW 01:50:51 89° SSE 01:55:02 10° ENE
Cosmos 2084 Rocket 3.1 01:49:15 23° SSW 01:51:32 73° SE 01:55:20 10° NE
Thor Agena Rocket 4.2 01:47:13 10° N 01:52:16 48° WNW 01:56:09 17° SW
USA 307 2.8 01:51:04 16° WSW 01:54:19 86° SSE 01:58:32 10° ENE
NPP 3.7 01:50:45 10° NNE 01:56:11 89° W 02:00:36 16° SSW
ERBS 2.0 01:54:54 21° WSW 01:56:47 79° NNW 01:59:52 10° ENE
Cosmos 2369 Rocket 2.6 01:51:59 10° NNW 01:57:35 66° ENE 02:03:09 10° SE
Gblst 52 Del rocket 4.3 01:52:30 10° W 01:58:24 83° N 02:03:54 10° E
USA-17 4.4 01:55:39 10° NW 01:58:54 88° SW 02:02:59 10° SE
Cosmos 1455 Rocket 4.1 01:56:49 10° NNW 02:00:42 30° W 02:03:14 17° SW
CZ-4 R/B 3.9 01:56:32 10° N 02:01:10 65° WNW 02:04:41 17° SSW
Cosmos 614 Rocket 3.9 01:56:05 10° NNW 02:01:18 83° WSW 02:06:31 10° SSE
Cosmos 2228 3.7 01:57:06 10° N 02:01:25 55° ENE 02:05:41 10° SSE
EO 1 Del DPAF 3.7 01:58:51 10° NNE 02:02:17 49° E 02:05:16 13° S
SL-16 R/B 2.3 01:58:00 17° SSW 02:02:30 79° ESE 02:08:12 10° NNE
Cosmos 2251 Rocket 3.9 01:58:00 10° NNW 02:03:17 68° ENE 02:08:32 10° SSE
Cosmos 1656 Rocket 4.1 02:01:35 10° NNW 02:06:59 63° ENE 02:12:22 10° SE
Meteor 1-28 Rocket 3.1 02:03:36 11° S 02:07:15 78° WSW 02:11:00 10° NNW
USA 215 4.1 02:03:06 10° ENE 02:09:24 52° N 02:15:42 10° WNW
COSMOS 2455 3.4 02:04:48 13° S 02:10:00 52° ESE 02:15:51 10° NE
Cosmos 1536 Rocket 3.6 02:08:03 13° S 02:11:55 86° E 02:16:20 10° N
Iridium 82 4.5 02:09:13 14° S 02:12:18 88° E 02:15:51 10° N
Cosmos 1975 Rocket 4.4 02:16:47 13° WSW 02:19:56 27° WNW 02:23:48 10° N
Nadezhda 1 Rocket 4.1 02:15:05 10° S 02:21:26 87° W 02:27:46 10° N
Meteor 1-24 Rocket 4.1 02:17:03 14° SW 02:21:41 49° WNW 02:26:57 10° N
MSX 4.1 02:16:17 10° NNE 02:22:03 69° ESE 02:27:48 10° S
UNK 4.3 02:19:09 12° SSW 02:23:01 39° W 02:27:22 10° NNW
Cosmos 1455 3.0 02:21:15 10° NNW 02:24:36 33° W 02:27:22 14° SSW
USA 308 3.0 02:20:48 10° WSW 02:24:59 74° NNW 02:29:11 10° ENE
MOS 1 Rocket 3.6 02:23:22 12° SSW 02:27:04 39° W 02:31:09 10° NNW
Cosmos 1025 Rocket 4.3 02:23:55 13° SW 02:27:07 27° WNW 02:30:49 10° N
Cosmos 1271 Rocket 2.8 02:24:46 10° NNW 02:28:30 55° W 02:32:16 10° S
Cosmos 1606 Rocket 3.8 02:28:11 10° N 02:32:38 76° ENE 02:37:01 10° SSE
ALOS 4.2 02:32:16 10° NE 02:36:11 26° E 02:40:05 10° SSE
CZ-2C R/B 4.3 02:33:55 10° NNE 02:38:20 28° E 02:42:39 10° SSE
CZ-2D R/B 3.0 02:33:54 10° N 02:38:51 38° WNW 02:43:43 10° SW
Lacrosse 5 1.9 02:37:42 10° WSW 02:42:50 89° NNW 02:47:58 10° ENE
Helios 1B rocket 3.6 02:39:20 10° NNE 02:43:12 41° E 02:47:03 10° S
Cosmos 2366 rocket 4.4 02:38:38 10° N 02:44:47 68° ENE 02:50:57 10° SSE
Cosmos 2341 Rocket 4.1 02:38:55 10° N 02:45:21 88° W 02:51:46 10° S
USA 305 3.4 02:44:22 10° W 02:48:29 59° NNW 02:52:38 10° ENE
Cosmos 2154 Rocket 4.5 02:42:42 10° NNW 02:48:39 44° W 02:54:33 10° SSW
Meteor 2-1 Rocket 4.3 02:44:08 10° NNW 02:49:57 80° W 02:55:36 10° S
BREEZE-M DEB (TANK) 4.2 02:47:39 10° SSW 02:51:06 20° SSE 02:53:08 10° ESE
Cosmos 407 Rocket 3.6 02:45:53 10° NNW 02:51:15 87° WSW 02:56:32 10° SSE
SL-8 Rocket 4.1 02:45:44 10° N 02:52:06 87° E 02:58:26 10° S
Cosmos 1943 3.7 02:51:56 10° SSW 02:57:32 61° ESE 03:03:09 10° NE
Cosmos 1328 3.9 02:53:37 10° S 02:57:33 78° E 03:01:34 10° NNE
Helios 1A 4.0 02:54:10 10° SSW 02:57:48 28° W 03:01:28 10° NW
Genesis I 3.2 02:54:49 10° NW 02:58:54 76° SW 03:02:54 10° SSE
Cosmos 2237 Rocket 3.9 02:55:24 10° W 02:59:54 23° NW 03:04:24 10° NNE
Lacrosse 5 rocket 1.3 02:57:46 10° WSW 03:01:42 89° NNW 03:05:54 10° ENE
Cosmos 1140 Rocket 3.5 02:56:56 10° NNW 03:02:11 70° WSW 03:07:23 10° SSE
SL-16 R/B 3.8 03:00:42 10° SW 03:05:27 23° W 03:10:14 10° NW
